Time,TemperatureF,DewpointF,PressureIn,WindDirection,WindDirectionDegrees,WindSpeedMPH,WindSpeedGustMPH,Humidity,HourlyPrecipIn,Conditions,Clouds,dailyrainin,SoftwareType,DateUTC
2013-06-04 00:01:00,53.8,11.3,17.72,WNW,300,0.0,0.0,18,0.00,,---,0.00,VWS V13.01,2013-06-04 04:01:00,
2013-06-04 00:06:00,53.8,11.3,17.72,West,280,0.0,2.2,18,0.00,,---,0.00,VWS V13.01,2013-06-04 04:06:00,
2013-06-04 00:11:00,53.6,11.1,17.72,WSW,250,0.0,0.0,18,0.00,,---,0.00,VWS V13.01,2013-06-04 04:11:00,
2013-06-04 00:16:00,53.6,11.1,17.72,WNW,287,0.0,0.0,18,0.00,,---,0.00,VWS V13.01,2013-06-04 04:16:00,
2013-06-04 00:21:00,53.6,11.1,17.72,NW,317,0.0,0.0,18,0.00,,---,0.00,VWS V13.01,2013-06-04 04:21:00,
2013-06-04 00:26:00,53.4,11.0,17.72,NW,313,0.0,0.0,18,0.00,,---,0.00,VWS V13.01,2013-06-04 04:26:00,
2013-06-04 00:31:00,53.4,14.5,17.72,NW,313,0.0,0.0,21,0.00,,---,0.00,VWS V13.01,2013-06-04 04:31:00,
2013-06-04 00:37:00,53.2,14.3,17.72,NNW,333,0.0,0.0,21,0.00,,---,0.00,VWS V13.01,2013-06-04 04:37:00,
2013-06-04 00:42:00,53.2,14.3,17.72,NNW,339,0.0,0.0,21,0.00,,---,0.00,VWS V13.01,2013-06-04 04:42:00,
2013-06-04 00:47:00,53.1,14.2,17.72,North,357,0.0,0.0,21,0.00,,---,0.00,VWS V13.01,2013-06-04 04:47:00,
2013-06-04 00:52:00,53.1,14.2,17.72,NW,307,0.0,0.0,21,0.00,,---,0.00,VWS V13.01,2013-06-04 04:52:00,
2013-06-04 00:57:00,53.1,14.2,17.72,North,9,3.1,3.1,21,0.00,,---,0.00,VWS V13.01,2013-06-04 04:57:00,
2013-06-04 01:02:00,53.1,14.2,17.72,WNW,300,0.0,0.0,21,0.00,,---,0.00,VWS V13.01,2013-06-04 05:02:00,
2013-06-04 01:07:00,52.9,14.0,17.72,North,7,0.0,0.0,21,0.00,,---,0.00,VWS V13.01,2013-06-04 05:07:00,
2013-06-04 01:12:00,52.7,13.9,17.72,West,278,0.0,0.0,21,0.00,,---,0.00,VWS V13.01,2013-06-04 05:12:00,
2013-06-04 01:17:00,52.5,13.7,17.72,North,357,0.0,0.0,21,0.00,,---,0.00,VWS V13.01,2013-06-04 05:17:00,
2013-06-04 01:22:00,52.5,13.7,17.72,WSW,250,0.0,0.0,21,0.00,,---,0.00,VWS V13.01,2013-06-04 05:22:00,
2013-06-04 01:27:00,52.3,15.7,17.72,NNE,14,0.0,0.0,23,0.00,,---,0.00,VWS V13.01,2013-06-04 05:27:00,
2013-06-04 01:32:00,52.2,15.5,17.72,SW,233,0.0,0.0,23,0.00,,---,0.00,VWS V13.01,2013-06-04 05:32:00,
2013-06-04 01:37:00,52.0,15.4,17.72,SW,233,0.0,0.0,23,0.00,,---,0.00,VWS V13.01,2013-06-04 05:37:00,
2013-06-04 01:42:00,51.8,15.2,17.72,SW,233,0.0,0.0,23,0.00,,---,0.00,VWS V13.01,2013-06-04 05:42:00,
2013-06-04 01:47:00,51.6,16.0,17.72,SW,233,0.0,0.0,24,0.00,,---,0.00,VWS V13.01,2013-06-04 05:47:00,
2013-06-04 01:52:00,51.4,15.9,17.72,SW,233,0.0,0.0,24,0.00,,---,0.00,VWS V13.01,2013-06-04 05:52:00,
2013-06-04 01:57:00,51.3,17.6,17.72,SW,233,0.0,0.0,26,0.00,,---,0.00,VWS V13.01,2013-06-04 05:57:00,
2013-06-04 02:02:00,51.1,17.4,17.72,WSW,246,0.0,0.0,26,0.00,,---,0.00,VWS V13.01,2013-06-04 06:02:00,
2013-06-04 02:07:00,50.9,17.2,17.72,WSW,246,0.0,0.0,26,0.00,,---,0.00,VWS V13.01,2013-06-04 06:07:00,
2013-06-04 02:12:00,50.7,17.1,17.72,WSW,246,0.0,0.0,26,0.00,,---,0.00,VWS V13.01,2013-06-04 06:12:00,
2013-06-04 02:17:00,50.5,17.0,17.72,WSW,246,0.0,0.0,26,0.00,,---,0.00,VWS V13.01,2013-06-04 06:17:00,
2013-06-04 02:22:00,50.4,16.8,17.72,WSW,246,0.0,0.0,26,0.00,,---,0.00,VWS V13.01,2013-06-04 06:22:00,
2013-06-04 02:27:00,50.4,17.7,17.72,WSW,246,0.0,0.0,27,0.00,,---,0.00,VWS V13.01,2013-06-04 06:27:00,
2013-06-04 02:32:00,50.2,17.5,17.72,WSW,246,0.0,0.0,27,0.00,,---,0.00,VWS V13.01,2013-06-04 06:32:00,
2013-06-04 02:37:00,50.2,17.5,17.72,WSW,246,0.0,0.0,27,0.00,,---,0.00,VWS V13.01,2013-06-04 06:37:00,
2013-06-04 02:42:00,50.0,17.4,17.72,WSW,246,0.0,0.0,27,0.00,,---,0.00,VWS V13.01,2013-06-04 06:42:00,
2013-06-04 02:47:00,50.0,17.4,17.72,WSW,246,0.0,0.0,27,0.00,,---,0.00,VWS V13.01,2013-06-04 06:47:00,
2013-06-04 02:52:00,49.8,17.2,17.72,WSW,246,0.0,0.0,27,0.00,,---,0.00,VWS V13.01,2013-06-04 06:52:00,
2013-06-04 02:57:00,49.8,17.2,17.72,WSW,246,0.0,0.0,27,0.00,,---,0.00,VWS V13.01,2013-06-04 06:57:00,
2013-06-04 03:02:00,49.6,17.9,17.72,WSW,246,0.0,0.0,28,0.00,,---,0.00,VWS V13.01,2013-06-04 07:02:00,
2013-06-04 03:07:00,49.6,17.9,17.72,WSW,246,0.0,0.0,28,0.00,,---,0.00,VWS V13.01,2013-06-04 07:07:00,
2013-06-04 03:12:00,49.6,17.9,17.72,WSW,246,0.0,0.0,28,0.00,,---,0.00,VWS V13.01,2013-06-04 07:12:00,
2013-06-04 03:17:00,49.6,17.9,17.72,WSW,246,0.0,0.0,28,0.00,,---,0.00,VWS V13.01,2013-06-04 07:17:00,
2013-06-04 03:22:00,49.5,17.7,17.72,WSW,246,0.0,0.0,28,0.00,,---,0.00,VWS V13.01,2013-06-04 07:22:00,
2013-06-04 03:27:00,49.5,17.7,17.72,WSW,246,0.0,0.0,28,0.00,,---,0.00,VWS V13.01,2013-06-04 07:27:00,
2013-06-04 03:32:00,49.5,17.7,17.72,SSW,213,0.0,0.0,28,0.00,,---,0.00,VWS V13.01,2013-06-04 07:32:00,
2013-06-04 03:37:00,49.5,17.7,17.72,West,266,0.0,0.0,28,0.00,,---,0.00,VWS V13.01,2013-06-04 07:37:00,
2013-06-04 03:42:00,49.5,17.7,17.72,West,266,0.0,0.0,28,0.00,,---,0.00,VWS V13.01,2013-06-04 07:42:00,
2013-06-04 03:47:00,49.5,17.7,17.72,WSW,238,0.0,0.0,28,0.00,,---,0.00,VWS V13.01,2013-06-04 07:47:00,
2013-06-04 03:52:00,49.5,17.7,17.72,WSW,238,0.0,0.0,28,0.00,,---,0.00,VWS V13.01,2013-06-04 07:52:00,
2013-06-04 03:57:00,49.3,17.6,17.72,WSW,238,0.0,0.0,28,0.00,,---,0.00,VWS V13.01,2013-06-04 07:57:00,
2013-06-04 04:02:00,49.3,17.6,17.72,WSW,238,0.0,0.0,28,0.00,,---,0.00,VWS V13.01,2013-06-04 08:02:00,
2013-06-04 04:07:00,49.1,17.4,17.72,WSW,238,0.0,0.0,28,0.00,,---,0.00,VWS V13.01,2013-06-04 08:07:00,
2013-06-04 04:12:00,48.9,17.3,17.72,WSW,238,0.0,0.0,28,0.00,,---,0.00,VWS V13.01,2013-06-04 08:12:00,
2013-06-04 04:17:00,48.9,17.3,17.72,WSW,238,0.0,0.0,28,0.00,,---,0.00,VWS V13.01,2013-06-04 08:17:00,
2013-06-04 04:22:00,48.7,17.1,17.72,WSW,238,0.0,0.0,28,0.00,,---,0.00,VWS V13.01,2013-06-04 08:22:00,
2013-06-04 04:27:00,48.7,17.9,17.72,WSW,238,0.0,0.0,29,0.00,,---,0.00,VWS V13.01,2013-06-04 08:27:00,
2013-06-04 04:32:00,48.7,17.9,17.72,WSW,241,0.0,0.0,29,0.00,,---,0.00,VWS V13.01,2013-06-04 08:32:00,
2013-06-04 04:37:00,48.7,17.9,17.72,WSW,248,0.0,0.0,29,0.00,,---,0.00,VWS V13.01,2013-06-04 08:37:00,
2013-06-04 04:42:00,48.7,17.9,17.72,WSW,250,0.0,0.0,29,0.00,,---,0.00,VWS V13.01,2013-06-04 08:42:00,
2013-06-04 04:47:00,48.7,17.9,17.72,WNW,299,0.0,0.0,29,0.00,,---,0.00,VWS V13.01,2013-06-04 08:47:00,
2013-06-04 04:52:00,48.7,17.1,17.72,WNW,299,0.0,0.0,28,0.00,,---,0.00,VWS V13.01,2013-06-04 08:52:00,
2013-06-04 04:57:00,48.7,17.9,17.72,West,271,0.0,0.0,29,0.00,,---,0.00,VWS V13.01,2013-06-04 08:57:00,
2013-06-04 05:02:00,48.9,18.1,17.72,West,271,0.0,0.0,29,0.00,,---,0.00,VWS V13.01,2013-06-04 09:02:00,
2013-06-04 05:07:00,48.9,18.1,17.72,West,269,0.0,0.0,29,0.00,,---,0.00,VWS V13.01,2013-06-04 09:07:00,
2013-06-04 05:12:00,48.9,18.1,17.72,West,275,0.0,0.0,29,0.00,,---,0.00,VWS V13.01,2013-06-04 09:12:00,
2013-06-04 05:17:00,48.9,17.3,17.72,WNW,286,0.0,0.0,28,0.00,,---,0.00,VWS V13.01,2013-06-04 09:17:00,
2013-06-04 05:22:00,48.9,17.3,17.72,West,271,0.0,0.0,28,0.00,,---,0.00,VWS V13.01,2013-06-04 09:22:00,
2013-06-04 05:27:00,48.9,17.3,17.72,North,353,0.0,0.0,28,0.00,,---,0.00,VWS V13.01,2013-06-04 09:27:00,
2013-06-04 05:32:00,48.9,17.3,17.72,WSW,258,0.0,0.0,28,0.00,,---,0.00,VWS V13.01,2013-06-04 09:32:00,
2013-06-04 05:37:00,48.9,17.3,17.72,West,264,0.0,0.0,28,0.00,,---,0.00,VWS V13.01,2013-06-04 09:37:00,
2013-06-04 05:42:00,48.9,17.3,17.72,WSW,257,0.0,0.0,28,0.00,,---,0.00,VWS V13.01,2013-06-04 09:42:00,
2013-06-04 05:47:00,48.9,17.3,17.72,NNW,344,0.0,0.0,28,0.00,,---,0.00,VWS V13.01,2013-06-04 09:47:00,
2013-06-04 05:52:00,48.9,17.3,17.72,West,268,0.0,0.0,28,0.00,,---,0.00,VWS V13.01,2013-06-04 09:52:00,
2013-06-04 05:57:00,49.1,16.6,17.72,West,276,0.0,0.0,27,0.00,,---,0.00,VWS V13.01,2013-06-04 09:57:00,
2013-06-04 06:02:00,49.1,16.6,17.72,North,3,0.0,0.0,27,0.00,,---,0.00,VWS V13.01,2013-06-04 10:02:00,
2013-06-04 06:07:00,49.3,16.7,17.72,WSW,255,0.0,0.0,27,0.00,,---,0.00,VWS V13.01,2013-06-04 10:07:00,
2013-06-04 06:12:00,49.3,16.7,17.72,North,4,0.0,0.0,27,0.00,,---,0.00,VWS V13.01,2013-06-04 10:12:00,
2013-06-04 06:17:00,49.3,16.7,17.72,West,276,0.0,0.0,27,0.00,,---,0.00,VWS V13.01,2013-06-04 10:17:00,
2013-06-04 06:22:00,49.5,16.9,17.72,North,353,0.0,0.0,27,0.00,,---,0.00,VWS V13.01,2013-06-04 10:22:00,
2013-06-04 06:27:00,49.6,17.0,17.72,WSW,250,0.0,0.0,27,0.00,,---,0.00,VWS V13.01,2013-06-04 10:27:00,
2013-06-04 06:32:00,49.6,17.0,17.72,North,5,0.0,0.0,27,0.00,,---,0.00,VWS V13.01,2013-06-04 10:32:00,
2013-06-04 06:37:00,49.8,17.2,17.72,NNE,20,0.0,0.0,27,0.00,,---,0.00,VWS V13.01,2013-06-04 10:37:00,
2013-06-04 06:42:00,49.8,17.2,17.72,WSW,256,2.7,2.7,27,0.00,,---,0.00,VWS V13.01,2013-06-04 10:42:00,
2013-06-04 06:47:00,50.0,16.5,17.72,North,1,0.0,0.0,26,0.00,,---,0.00,VWS V13.01,2013-06-04 10:47:00,
2013-06-04 06:52:00,50.2,16.6,17.72,WSW,250,0.0,0.0,26,0.00,,---,0.00,VWS V13.01,2013-06-04 10:52:00,
2013-06-04 06:57:00,50.5,17.0,17.72,West,268,0.0,0.0,26,0.00,,---,0.00,VWS V13.01,2013-06-04 10:57:00,
2013-06-04 07:02:00,50.9,17.2,17.72,WSW,253,0.0,0.0,26,0.00,,---,0.00,VWS V13.01,2013-06-04 11:02:00,
2013-06-04 07:07:00,51.3,17.6,17.72,WSW,258,0.0,0.0,26,0.00,,---,0.00,VWS V13.01,2013-06-04 11:07:00,
2013-06-04 07:12:00,51.6,17.9,17.72,WSW,251,0.0,0.0,26,0.00,,---,0.00,VWS V13.01,2013-06-04 11:12:00,
2013-06-04 07:17:00,52.0,15.4,17.72,NNW,338,0.0,0.0,23,0.00,,---,0.00,VWS V13.01,2013-06-04 11:17:00,
2013-06-04 07:22:00,52.3,15.7,17.72,West,272,0.0,0.0,23,0.00,,---,0.00,VWS V13.01,2013-06-04 11:22:00,
2013-06-04 07:27:00,52.7,16.0,17.72,NNE,15,0.0,0.0,23,0.00,,---,0.00,VWS V13.01,2013-06-04 11:27:00,
2013-06-04 07:32:00,52.9,14.0,17.72,North,0,0.0,3.1,21,0.00,,---,0.00,VWS V13.01,2013-06-04 11:32:00,
2013-06-04 07:37:00,52.9,14.0,17.72,North,8,0.0,0.0,21,0.00,,---,0.00,VWS V13.01,2013-06-04 11:37:00,
2013-06-04 07:42:00,52.9,14.0,17.72,West,270,0.0,0.0,21,0.00,,---,0.00,VWS V13.01,2013-06-04 11:42:00,
2013-06-04 07:47:00,52.9,14.0,17.72,SSE,154,3.6,3.6,21,0.00,,---,0.00,VWS V13.01,2013-06-04 11:47:00,
2013-06-04 07:52:00,53.1,14.2,17.72,West,276,2.7,3.6,21,0.00,,---,0.00,VWS V13.01,2013-06-04 11:52:00,
2013-06-04 07:57:00,53.1,14.2,17.72,NNW,346,0.0,3.1,21,0.00,,---,0.00,VWS V13.01,2013-06-04 11:57:00,
2013-06-04 08:02:00,53.4,14.5,17.72,WNW,294,0.0,3.1,21,0.00,,---,0.00,VWS V13.01,2013-06-04 12:02:00,
2013-06-04 08:07:00,53.6,13.5,17.72,SW,223,0.0,0.0,20,0.00,,---,0.00,VWS V13.01,2013-06-04 12:07:00,
2013-06-04 08:12:00,53.8,13.7,17.72,NNW,333,0.0,0.0,20,0.00,,---,0.00,VWS V13.01,2013-06-04 12:12:00,
2013-06-04 08:17:00,54.1,14.0,17.72,NNW,346,0.0,0.0,20,0.00,,---,0.00,VWS V13.01,2013-06-04 12:17:00,
2013-06-04 08:22:00,54.3,14.1,17.72,WNW,302,0.0,0.0,20,0.00,,---,0.00,VWS V13.01,2013-06-04 12:22:00,
2013-06-04 08:27:00,54.3,14.1,17.72,North,10,0.0,4.0,20,0.00,,---,0.00,VWS V13.01,2013-06-04 12:27:00,
2013-06-04 08:32:00,54.5,11.9,17.72,North,6,0.0,3.6,18,0.00,,---,0.00,VWS V13.01,2013-06-04 12:32:00,
2013-06-04 08:37:00,54.5,11.9,17.72,WNW,292,0.0,0.0,18,0.00,,---,0.00,VWS V13.01,2013-06-04 12:37:00,
2013-06-04 08:42:00,54.7,12.0,17.72,SW,231,0.0,0.0,18,0.00,,---,0.00,VWS V13.01,2013-06-04 12:42:00,
2013-06-04 08:47:00,54.9,12.2,17.72,NNE,16,0.0,3.1,18,0.00,,---,0.00,VWS V13.01,2013-06-04 12:47:00,
2013-06-04 08:52:00,55.0,12.3,17.72,ENE,59,0.0,0.0,18,0.00,,---,0.00,VWS V13.01,2013-06-04 12:52:00,
2013-06-04 08:57:00,55.2,12.5,17.72,WSW,245,3.6,4.9,18,0.00,,---,0.00,VWS V13.01,2013-06-04 12:57:00,
2013-06-04 09:02:00,55.4,11.3,17.72,North,4,0.0,0.0,17,0.00,,---,0.00,VWS V13.01,2013-06-04 13:02:00,
2013-06-04 09:07:00,55.8,11.6,17.72,North,5,0.0,0.0,17,0.00,,---,0.00,VWS V13.01,2013-06-04 13:07:00,
2013-06-04 09:12:00,55.9,11.8,17.72,North,353,0.0,0.0,17,0.00,,---,0.00,VWS V13.01,2013-06-04 13:12:00,
2013-06-04 09:17:00,56.1,11.9,17.72,WNW,300,2.2,3.6,17,0.00,,---,0.00,VWS V13.01,2013-06-04 13:17:00,
2013-06-04 09:22:00,56.3,9.3,17.72,NNE,27,3.1,5.8,15,0.00,,---,0.00,VWS V13.01,2013-06-04 13:22:00,
2013-06-04 09:27:00,56.3,9.3,17.72,NNE,30,3.1,3.6,15,0.00,,---,0.00,VWS V13.01,2013-06-04 13:27:00,
2013-06-04 09:32:00,56.3,9.3,17.72,North,353,0.0,3.1,15,0.00,,---,0.00,VWS V13.01,2013-06-04 13:32:00,
2013-06-04 09:37:00,56.1,9.1,17.72,West,270,5.4,5.4,15,0.00,,---,0.00,VWS V13.01,2013-06-04 13:37:00,
2013-06-04 09:42:00,56.1,9.1,17.72,South,189,0.0,0.0,15,0.00,,---,0.00,VWS V13.01,2013-06-04 13:42:00,
2013-06-04 09:47:00,56.1,9.1,17.72,NNE,22,0.0,3.1,15,0.00,,---,0.00,VWS V13.01,2013-06-04 13:47:00,
2013-06-04 09:52:00,56.3,9.3,17.72,NNW,339,0.0,0.0,15,0.00,,---,0.00,VWS V13.01,2013-06-04 13:52:00,
2013-06-04 09:57:00,56.3,9.3,17.72,NNE,18,3.1,3.1,15,0.00,,---,0.00,VWS V13.01,2013-06-04 13:57:00,
2013-06-04 10:02:00,56.5,9.4,17.72,WSW,249,0.0,2.2,15,0.00,,---,0.00,VWS V13.01,2013-06-04 14:02:00,
2013-06-04 10:07:00,56.3,9.3,17.72,WSW,248,0.0,4.9,15,0.00,,---,0.00,VWS V13.01,2013-06-04 14:07:00,
2013-06-04 10:12:00,56.3,9.3,17.72,NE,39,3.6,3.6,15,0.00,,---,0.00,VWS V13.01,2013-06-04 14:12:00,
2013-06-04 10:17:00,56.5,9.4,17.72,North,3,0.0,5.4,15,0.00,,---,0.00,VWS V13.01,2013-06-04 14:17:00,
2013-06-04 10:22:00,56.5,9.4,17.72,SSE,147,0.0,3.1,15,0.00,,---,0.00,VWS V13.01,2013-06-04 14:22:00,
2013-06-04 10:27:00,56.7,9.6,17.72,NNE,12,0.0,0.0,15,0.00,,---,0.00,VWS V13.01,2013-06-04 14:27:00,
2013-06-04 10:32:00,56.5,9.4,17.72,North,353,0.0,2.2,15,0.00,,---,0.00,VWS V13.01,2013-06-04 14:32:00,
2013-06-04 10:37:00,56.5,9.4,17.72,NE,47,2.7,4.0,15,0.00,,---,0.00,VWS V13.01,2013-06-04 14:37:00,
2013-06-04 10:42:00,56.5,9.4,17.72,NNE,14,0.0,3.1,15,0.00,,---,0.00,VWS V13.01,2013-06-04 14:42:00,
2013-06-04 10:47:00,56.7,9.6,17.72,North,10,4.9,4.9,15,0.00,,---,0.00,VWS V13.01,2013-06-04 14:47:00,
2013-06-04 10:52:00,56.8,9.7,17.72,WSW,252,2.7,2.7,15,0.00,,---,0.00,VWS V13.01,2013-06-04 14:52:00,
2013-06-04 10:57:00,56.8,9.7,17.72,North,357,0.0,0.0,15,0.00,,---,0.00,VWS V13.01,2013-06-04 14:57:00,
2013-06-04 11:02:00,57.0,9.8,17.72,ESE,116,0.0,0.0,15,0.00,,---,0.00,VWS V13.01,2013-06-04 15:02:00,
2013-06-04 11:07:00,57.2,8.4,17.72,West,262,4.0,4.0,14,0.00,,---,0.00,VWS V13.01,2013-06-04 15:07:00,
2013-06-04 11:12:00,57.2,5.1,17.72,North,3,2.7,2.7,12,0.00,,---,0.00,VWS V13.01,2013-06-04 15:12:00,
2013-06-04 11:17:00,57.6,8.7,17.72,North,11,0.0,0.0,14,0.00,,---,0.00,VWS V13.01,2013-06-04 15:17:00,
2013-06-04 11:22:00,57.9,5.6,17.72,ENE,68,5.4,5.4,12,0.00,,---,0.00,VWS V13.01,2013-06-04 15:22:00,
2013-06-04 11:27:00,57.9,5.6,17.72,NE,46,5.4,5.4,12,0.00,,---,0.00,VWS V13.01,2013-06-04 15:27:00,
2013-06-04 11:32:00,57.9,5.6,17.72,NE,52,0.0,4.9,12,0.00,,---,0.00,VWS V13.01,2013-06-04 15:32:00,
2013-06-04 11:37:00,57.9,5.6,17.72,WSW,247,2.2,4.0,12,0.00,,---,0.00,VWS V13.01,2013-06-04 15:37:00,
2013-06-04 11:42:00,57.9,5.6,17.72,WNW,301,0.0,5.8,12,0.00,,---,0.00,VWS V13.01,2013-06-04 15:42:00,
2013-06-04 11:47:00,58.3,5.9,17.72,NW,326,0.0,2.7,12,0.00,,---,0.00,VWS V13.01,2013-06-04 15:47:00,
2013-06-04 11:52:00,58.6,6.2,17.72,NNE,13,0.0,2.7,12,0.00,,---,0.00,VWS V13.01,2013-06-04 15:52:00,
2013-06-04 11:57:00,58.8,6.3,17.72,North,353,0.0,0.0,12,0.00,,---,0.00,VWS V13.01,2013-06-04 15:57:00,
2013-06-04 12:02:00,59.0,6.5,17.72,East,99,0.0,0.0,12,0.00,,---,0.00,VWS V13.01,2013-06-04 16:02:00,
2013-06-04 12:07:00,58.8,6.3,17.72,West,281,2.2,5.4,12,0.00,,---,0.00,VWS V13.01,2013-06-04 16:07:00,
2013-06-04 12:12:00,59.0,6.5,17.72,ENE,70,3.1,3.1,12,0.00,,---,0.00,VWS V13.01,2013-06-04 16:12:00,
2013-06-04 12:17:00,59.2,6.6,17.72,North,357,0.0,3.6,12,0.00,,---,0.00,VWS V13.01,2013-06-04 16:17:00,
2013-06-04 12:22:00,59.4,6.8,17.72,NNW,343,2.7,2.7,12,0.00,,---,0.00,VWS V13.01,2013-06-04 16:22:00,
2013-06-04 12:27:00,59.5,6.9,17.72,North,10,0.0,0.0,12,0.00,,---,0.00,VWS V13.01,2013-06-04 16:27:00,
2013-06-04 12:32:00,59.5,6.9,17.72,ENE,64,0.0,4.0,12,0.00,,---,0.00,VWS V13.01,2013-06-04 16:32:00,
2013-06-04 12:37:00,59.4,6.8,17.72,East,92,0.0,0.0,12,0.00,,---,0.00,VWS V13.01,2013-06-04 16:37:00,
2013-06-04 12:42:00,59.4,6.8,17.72,NNE,32,4.5,4.5,12,0.00,,---,0.00,VWS V13.01,2013-06-04 16:42:00,
2013-06-04 12:47:00,59.5,6.9,17.72,NNE,30,2.2,2.7,12,0.00,,---,0.00,VWS V13.01,2013-06-04 16:47:00,
2013-06-04 12:52:00,59.5,6.9,17.72,NE,35,4.9,4.9,12,0.00,,---,0.00,VWS V13.01,2013-06-04 16:52:00,
2013-06-04 12:57:00,59.4,6.8,17.72,NNE,26,3.1,5.4,12,0.00,,---,0.00,VWS V13.01,2013-06-04 16:57:00,
2013-06-04 13:02:00,59.5,6.9,17.72,ENE,78,0.0,2.2,12,0.00,,---,0.00,VWS V13.01,2013-06-04 17:02:00,
2013-06-04 13:07:00,59.7,7.0,17.72,ENE,70,0.0,0.0,12,0.00,,---,0.00,VWS V13.01,2013-06-04 17:07:00,
2013-06-04 13:12:00,60.1,7.3,17.72,ENE,75,2.2,2.7,12,0.00,,---,0.00,VWS V13.01,2013-06-04 17:12:00,
2013-06-04 13:17:00,60.4,7.6,17.72,ENE,69,0.0,2.2,12,0.00,,---,0.00,VWS V13.01,2013-06-04 17:17:00,
2013-06-04 13:22:00,61.0,6.1,17.72,East,79,0.0,2.7,11,0.00,,---,0.00,VWS V13.01,2013-06-04 17:22:00,
2013-06-04 13:27:00,61.5,6.5,17.72,North,357,0.0,0.0,11,0.00,,---,0.00,VWS V13.01,2013-06-04 17:27:00,
2013-06-04 13:32:00,62.1,7.0,17.72,NE,52,5.4,6.3,11,0.00,,---,0.00,VWS V13.01,2013-06-04 17:32:00,
2013-06-04 13:37:00,62.8,7.5,17.72,North,357,0.0,2.2,11,0.00,,---,0.00,VWS V13.01,2013-06-04 17:37:00,
2013-06-04 13:42:00,63.1,7.8,17.72,NNW,328,0.0,4.0,11,0.00,,---,0.00,VWS V13.01,2013-06-04 17:42:00,
2013-06-04 13:47:00,63.5,8.1,17.72,NNE,21,3.1,3.1,11,0.00,,---,0.00,VWS V13.01,2013-06-04 17:47:00,
2013-06-04 13:52:00,64.2,8.6,17.72,NNE,32,0.0,2.7,11,0.00,,---,0.00,VWS V13.01,2013-06-04 17:52:00,
2013-06-04 13:57:00,64.6,6.8,17.72,NNE,16,5.4,5.4,10,0.00,,---,0.00,VWS V13.01,2013-06-04 17:57:00,
2013-06-04 14:02:00,64.0,8.5,17.72,ESE,117,0.0,0.0,11,0.00,,---,0.00,VWS V13.01,2013-06-04 18:02:00,
2013-06-04 14:07:00,64.2,8.6,17.72,NE,34,3.1,4.0,11,0.00,,---,0.00,VWS V13.01,2013-06-04 18:07:00,
2013-06-04 14:12:00,63.9,8.4,17.72,East,81,0.0,0.0,11,0.00,,---,0.00,VWS V13.01,2013-06-04 18:12:00,
2013-06-04 14:17:00,64.4,6.7,17.72,WNW,290,0.0,3.1,10,0.00,,---,0.00,VWS V13.01,2013-06-04 18:17:00,
2013-06-04 14:22:00,64.4,6.7,17.72,East,83,3.1,3.1,10,0.00,,---,0.00,VWS V13.01,2013-06-04 18:22:00,
2013-06-04 14:27:00,64.4,6.7,17.72,NNW,345,0.0,0.0,10,0.00,,---,0.00,VWS V13.01,2013-06-04 18:27:00,
2013-06-04 14:32:00,64.6,6.8,17.72,NE,39,0.0,0.0,10,0.00,,---,0.00,VWS V13.01,2013-06-04 18:32:00,
2013-06-04 14:37:00,65.1,7.2,17.72,West,260,0.0,3.1,10,0.00,,---,0.00,VWS V13.01,2013-06-04 18:37:00,
2013-06-04 14:42:00,65.8,7.8,17.72,East,94,0.0,0.0,10,0.00,,---,0.00,VWS V13.01,2013-06-04 18:42:00,
2013-06-04 14:47:00,66.4,8.2,17.72,NE,46,0.0,0.0,10,0.00,,---,0.00,VWS V13.01,2013-06-04 18:47:00,
2013-06-04 14:52:00,66.0,7.9,17.72,NNE,28,3.1,4.0,10,0.00,,---,0.00,VWS V13.01,2013-06-04 18:52:00,
2013-06-04 14:57:00,66.0,7.9,17.72,East,90,5.8,5.8,10,0.00,,---,0.00,VWS V13.01,2013-06-04 18:57:00,
2013-06-04 15:02:00,65.8,7.8,17.72,ESE,111,3.1,3.1,10,0.00,,---,0.00,VWS V13.01,2013-06-04 19:02:00,
2013-06-04 15:07:00,66.2,8.1,17.72,ENE,76,3.1,3.1,10,0.00,,---,0.00,VWS V13.01,2013-06-04 19:07:00,
2013-06-04 15:12:00,66.6,8.3,17.72,East,98,3.1,3.1,10,0.00,,---,0.00,VWS V13.01,2013-06-04 19:12:00,
2013-06-04 15:17:00,66.9,8.6,17.72,West,264,2.7,2.7,10,0.00,,---,0.00,VWS V13.01,2013-06-04 19:17:00,
2013-06-04 15:22:00,67.3,8.9,17.72,ENE,65,4.0,4.0,10,0.00,,---,0.00,VWS V13.01,2013-06-04 19:22:00,
2013-06-04 15:27:00,66.9,8.6,17.72,NE,46,0.0,2.7,10,0.00,,---,0.00,VWS V13.01,2013-06-04 19:27:00,
2013-06-04 15:32:00,67.3,8.9,17.72,ESE,123,0.0,0.0,10,0.00,,---,0.00,VWS V13.01,2013-06-04 19:32:00,
2013-06-04 15:37:00,67.6,9.1,17.72,West,274,2.2,4.0,10,0.00,,---,0.00,VWS V13.01,2013-06-04 19:37:00,
2013-06-04 15:42:00,67.1,8.7,17.72,NE,41,2.7,2.7,10,0.00,,---,0.00,VWS V13.01,2013-06-04 19:42:00,
2013-06-04 15:47:00,67.5,9.0,17.72,WNW,285,2.7,2.7,10,0.00,,---,0.00,VWS V13.01,2013-06-04 19:47:00,
2013-06-04 15:52:00,68.4,9.7,17.72,WNW,283,2.7,2.7,10,0.00,,---,0.00,VWS V13.01,2013-06-04 19:52:00,
2013-06-04 15:57:00,68.0,9.4,17.72,NE,44,2.7,3.6,10,0.00,,---,0.00,VWS V13.01,2013-06-04 19:57:00,
2013-06-04 16:02:00,68.5,9.8,17.72,NNE,27,3.1,4.0,10,0.00,,---,0.00,VWS V13.01,2013-06-04 20:02:00,
2013-06-04 16:07:00,68.7,10.0,17.72,North,4,2.2,2.2,10,0.00,,---,0.00,VWS V13.01,2013-06-04 20:07:00,
2013-06-04 16:12:00,68.7,10.0,17.72,North,4,2.2,2.2,10,0.00,,---,0.00,VWS V13.01,2013-06-04 20:12:00,
2013-06-04 16:17:00,68.9,10.1,17.72,North,4,2.2,2.2,10,0.00,,---,0.00,VWS V13.01,2013-06-04 20:17:00,
2013-06-04 16:22:00,69.4,10.5,17.72,North,4,2.2,2.2,10,0.00,,---,0.00,VWS V13.01,2013-06-04 20:22:00,
2013-06-04 16:27:00,69.6,10.7,17.72,West,260,2.2,2.7,10,0.00,,---,0.00,VWS V13.01,2013-06-04 20:27:00,
2013-06-04 16:32:00,69.8,8.5,17.72,West,260,2.2,2.2,9,0.00,,---,0.00,VWS V13.01,2013-06-04 20:32:00,
2013-06-04 16:37:00,70.3,8.9,17.72,West,259,0.0,4.0,9,0.00,,---,0.00,VWS V13.01,2013-06-04 20:37:00,
2013-06-04 16:42:00,70.3,8.9,17.72,WNW,283,2.7,2.7,9,0.00,,---,0.00,VWS V13.01,2013-06-04 20:42:00,
2013-06-04 16:47:00,70.3,8.9,17.72,West,260,3.6,3.6,9,0.00,,---,0.00,VWS V13.01,2013-06-04 20:47:00,
2013-06-04 16:52:00,70.0,8.6,17.72,West,269,0.0,0.0,9,0.00,,---,0.00,VWS V13.01,2013-06-04 20:52:00,
2013-06-04 16:57:00,70.2,8.7,17.72,WSW,243,0.0,0.0,9,0.00,,---,0.00,VWS V13.01,2013-06-04 20:57:00,
2013-06-04 17:02:00,69.8,8.5,17.72,North,4,2.7,2.7,9,0.00,,---,0.00,VWS V13.01,2013-06-04 21:02:00,
2013-06-04 17:07:00,69.6,10.7,17.72,NNE,33,0.0,2.7,10,0.00,,---,0.00,VWS V13.01,2013-06-04 21:07:00,
2013-06-04 17:12:00,69.4,10.5,17.72,NNE,33,0.0,0.0,10,0.00,,---,0.00,VWS V13.01,2013-06-04 21:12:00,
2013-06-04 17:17:00,69.6,10.7,17.72,North,357,3.6,3.6,10,0.00,,---,0.00,VWS V13.01,2013-06-04 21:17:00,
2013-06-04 17:22:00,69.6,10.7,17.72,North,4,0.0,0.0,10,0.00,,---,0.00,VWS V13.01,2013-06-04 21:22:00,
2013-06-04 17:27:00,69.6,10.7,17.72,NNE,32,3.1,3.1,10,0.00,,---,0.00,VWS V13.01,2013-06-04 21:27:00,
2013-06-04 17:32:00,69.4,10.5,17.72,NNE,32,3.1,3.1,10,0.00,,---,0.00,VWS V13.01,2013-06-04 21:32:00,
2013-06-04 17:37:00,69.6,10.7,17.72,NNE,32,3.1,3.1,10,0.00,,---,0.00,VWS V13.01,2013-06-04 21:37:00,
2013-06-04 17:42:00,69.4,10.5,17.72,NNE,32,3.1,3.1,10,0.00,,---,0.00,VWS V13.01,2013-06-04 21:42:00,
2013-06-04 17:47:00,70.2,8.7,17.72,NNE,32,3.1,3.1,9,0.00,,---,0.00,VWS V13.01,2013-06-04 21:47:00,
2013-06-04 17:52:00,70.5,9.0,17.72,NW,313,0.0,0.0,9,0.00,,---,0.00,VWS V13.01,2013-06-04 21:52:00,
2013-06-04 17:57:00,70.3,8.9,17.72,NNW,338,2.2,2.2,9,0.00,,---,0.00,VWS V13.01,2013-06-04 21:57:00,
2013-06-04 18:02:00,70.2,8.7,17.72,West,273,2.2,2.2,9,0.00,,---,0.00,VWS V13.01,2013-06-04 22:02:00,
2013-06-04 18:07:00,70.2,8.7,17.72,West,273,2.2,2.2,9,0.00,,---,0.00,VWS V13.01,2013-06-04 22:07:00,
2013-06-04 18:12:00,70.2,8.7,17.72,West,273,2.2,2.2,9,0.00,,---,0.00,VWS V13.01,2013-06-04 22:12:00,
2013-06-04 18:17:00,69.4,10.5,17.72,West,281,0.0,3.1,10,0.00,,---,0.00,VWS V13.01,2013-06-04 22:17:00,
2013-06-04 18:22:00,69.3,10.4,17.72,West,274,0.0,0.0,10,0.00,,---,0.00,VWS V13.01,2013-06-04 22:22:00,
2013-06-04 18:27:00,69.1,10.3,17.72,WSW,249,0.0,0.0,10,0.00,,---,0.00,VWS V13.01,2013-06-04 22:27:00,
2013-06-04 18:32:00,69.1,10.3,17.72,North,353,0.0,0.0,10,0.00,,---,0.00,VWS V13.01,2013-06-04 22:32:00,
2013-06-04 18:37:00,68.9,10.1,17.72,West,261,3.1,3.1,10,0.00,,---,0.00,VWS V13.01,2013-06-04 22:37:00,
2013-06-04 18:42:00,68.4,9.7,17.72,NNE,31,0.0,2.7,10,0.00,,---,0.00,VWS V13.01,2013-06-04 22:42:00,
2013-06-04 18:47:00,68.2,9.6,17.72,West,265,0.0,0.0,10,0.00,,---,0.00,VWS V13.01,2013-06-04 22:47:00,
2013-06-04 18:52:00,68.0,9.4,17.72,NW,324,0.0,4.0,10,0.00,,---,0.00,VWS V13.01,2013-06-04 22:52:00,
2013-06-04 18:57:00,68.0,9.4,17.72,West,278,0.0,0.0,10,0.00,,---,0.00,VWS V13.01,2013-06-04 22:57:00,
2013-06-04 19:02:00,67.8,9.3,17.72,North,357,3.1,3.1,10,0.00,,---,0.00,VWS V13.01,2013-06-04 23:02:00,
2013-06-04 19:07:00,67.5,9.0,17.72,NE,41,0.0,2.2,10,0.00,,---,0.00,VWS V13.01,2013-06-04 23:07:00,
2013-06-04 19:12:00,67.3,8.9,17.72,North,6,0.0,3.1,10,0.00,,---,0.00,VWS V13.01,2013-06-04 23:12:00,
2013-06-04 19:17:00,66.9,8.6,17.72,SW,233,3.1,3.1,10,0.00,,---,0.00,VWS V13.01,2013-06-04 23:17:00,
2013-06-04 19:22:00,66.6,8.3,17.72,SW,236,2.2,2.2,10,0.00,,---,0.00,VWS V13.01,2013-06-04 23:22:00,
2013-06-04 19:27:00,66.2,8.1,17.72,NNE,17,0.0,0.0,10,0.00,,---,0.00,VWS V13.01,2013-06-04 23:27:00,
2013-06-04 19:32:00,65.7,7.6,17.72,North,2,0.0,0.0,10,0.00,,---,0.00,VWS V13.01,2013-06-04 23:32:00,
2013-06-04 19:37:00,65.1,7.2,17.72,West,266,4.0,4.0,10,0.00,,---,0.00,VWS V13.01,2013-06-04 23:37:00,
2013-06-04 19:42:00,64.8,6.9,17.72,NW,304,0.0,0.0,10,0.00,,---,0.00,VWS V13.01,2013-06-04 23:42:00,
2013-06-04 19:47:00,64.4,6.7,17.72,NW,304,0.0,0.0,10,0.00,,---,0.00,VWS V13.01,2013-06-04 23:47:00,
2013-06-04 19:52:00,64.2,8.6,17.72,North,349,0.0,0.0,11,0.00,,---,0.00,VWS V13.01,2013-06-04 23:52:00,
2013-06-04 19:57:00,63.9,8.4,17.72,NNW,341,0.0,0.0,11,0.00,,---,0.00,VWS V13.01,2013-06-04 23:57:00,
2013-06-04 20:02:00,63.7,8.2,17.72,West,261,0.0,0.0,11,0.00,,---,0.00,VWS V13.01,2013-06-05 00:02:00,
2013-06-04 20:07:00,63.5,8.1,17.72,West,261,0.0,0.0,11,0.00,,---,0.00,VWS V13.01,2013-06-05 00:07:00,
2013-06-04 20:12:00,63.1,7.8,17.72,West,261,0.0,0.0,11,0.00,,---,0.00,VWS V13.01,2013-06-05 00:12:00,
2013-06-04 20:17:00,63.0,7.7,17.72,West,261,0.0,0.0,11,0.00,,---,0.00,VWS V13.01,2013-06-05 00:17:00,
2013-06-04 20:22:00,62.6,7.4,17.72,West,261,0.0,0.0,11,0.00,,---,0.00,VWS V13.01,2013-06-05 00:22:00,
2013-06-04 20:27:00,62.2,7.1,17.72,West,261,0.0,0.0,11,0.00,,---,0.00,VWS V13.01,2013-06-05 00:27:00,
2013-06-04 20:32:00,61.7,6.7,17.72,West,261,0.0,0.0,11,0.00,,---,0.00,VWS V13.01,2013-06-05 00:32:00,
2013-06-04 20:37:00,61.0,6.1,17.72,West,261,0.0,0.0,11,0.00,,---,0.00,VWS V13.01,2013-06-05 00:37:00,
2013-06-04 20:42:00,60.3,7.5,17.72,West,261,0.0,0.0,12,0.00,,---,0.00,VWS V13.01,2013-06-05 00:42:00,
2013-06-04 20:47:00,59.7,7.0,17.72,West,261,0.0,0.0,12,0.00,,---,0.00,VWS V13.01,2013-06-05 00:47:00,
2013-06-04 20:52:00,59.4,6.8,17.72,West,261,0.0,0.0,12,0.00,,---,0.00,VWS V13.01,2013-06-05 00:52:00,
2013-06-04 20:57:00,58.8,6.3,17.72,West,261,0.0,0.0,12,0.00,,---,0.00,VWS V13.01,2013-06-05 00:57:00,
2013-06-04 21:02:00,58.3,5.9,17.72,West,261,0.0,0.0,12,0.00,,---,0.00,VWS V13.01,2013-06-05 01:02:00,
2013-06-04 21:07:00,57.9,5.6,17.72,West,261,0.0,0.0,12,0.00,,---,0.00,VWS V13.01,2013-06-05 01:07:00,
2013-06-04 21:12:00,57.4,5.2,17.72,West,261,0.0,0.0,12,0.00,,---,0.00,VWS V13.01,2013-06-05 01:12:00,
2013-06-04 21:17:00,56.8,4.8,17.72,West,261,0.0,0.0,12,0.00,,---,0.00,VWS V13.01,2013-06-05 01:17:00,
2013-06-04 21:22:00,56.7,4.6,17.72,West,261,0.0,0.0,12,0.00,,---,0.00,VWS V13.01,2013-06-05 01:22:00,
2013-06-04 21:27:00,56.5,4.5,17.72,West,261,0.0,0.0,12,0.00,,---,0.00,VWS V13.01,2013-06-05 01:27:00,
2013-06-04 21:32:00,56.1,4.2,17.72,West,261,0.0,0.0,12,0.00,,---,0.00,VWS V13.01,2013-06-05 01:32:00,
2013-06-04 21:37:00,55.8,3.9,17.72,West,261,0.0,0.0,12,0.00,,---,0.00,VWS V13.01,2013-06-05 01:37:00,
2013-06-04 21:42:00,55.6,3.8,17.72,West,261,0.0,0.0,12,0.00,,---,0.00,VWS V13.01,2013-06-05 01:42:00,
2013-06-04 21:47:00,55.4,3.7,17.72,West,261,0.0,0.0,12,0.00,,---,0.00,VWS V13.01,2013-06-05 01:47:00,
2013-06-04 21:52:00,55.2,5.2,17.72,West,261,0.0,0.0,13,0.00,,---,0.00,VWS V13.01,2013-06-05 01:52:00,
2013-06-04 21:57:00,55.0,5.1,17.72,West,261,0.0,0.0,13,0.00,,---,0.00,VWS V13.01,2013-06-05 01:57:00,
2013-06-04 22:02:00,54.9,5.0,17.72,West,261,0.0,0.0,13,0.00,,---,0.00,VWS V13.01,2013-06-05 02:02:00,
2013-06-04 22:07:00,54.9,5.0,17.72,West,261,0.0,0.0,13,0.00,,---,0.00,VWS V13.01,2013-06-05 02:07:00,
2013-06-04 22:12:00,54.7,4.8,17.72,West,261,0.0,0.0,13,0.00,,---,0.00,VWS V13.01,2013-06-05 02:12:00,
2013-06-04 22:17:00,54.5,4.7,17.72,West,261,0.0,0.0,13,0.00,,---,0.00,VWS V13.01,2013-06-05 02:17:00,
2013-06-04 22:22:00,54.5,4.7,17.72,West,261,0.0,0.0,13,0.00,,---,0.00,VWS V13.01,2013-06-05 02:22:00,
2013-06-04 22:27:00,54.5,4.7,17.72,West,261,0.0,0.0,13,0.00,,---,0.00,VWS V13.01,2013-06-05 02:27:00,
2013-06-04 22:32:00,54.5,4.7,17.72,West,261,0.0,0.0,13,0.00,,---,0.00,VWS V13.01,2013-06-05 02:32:00,
2013-06-04 22:37:00,54.5,7.8,17.72,West,261,0.0,0.0,15,0.00,,---,0.00,VWS V13.01,2013-06-05 02:37:00,
2013-06-04 22:42:00,54.5,7.8,17.72,West,261,0.0,0.0,15,0.00,,---,0.00,VWS V13.01,2013-06-05 02:42:00,
2013-06-04 22:47:00,54.5,7.8,17.72,West,261,0.0,0.0,15,0.00,,---,0.00,VWS V13.01,2013-06-05 02:47:00,
2013-06-04 22:52:00,54.5,7.8,17.72,West,261,0.0,0.0,15,0.00,,---,0.00,VWS V13.01,2013-06-05 02:52:00,
2013-06-04 22:57:00,54.5,7.8,17.72,West,261,0.0,0.0,15,0.00,,---,0.00,VWS V13.01,2013-06-05 02:57:00,
2013-06-04 23:02:00,54.5,7.8,17.72,West,261,0.0,0.0,15,0.00,,---,0.00,VWS V13.01,2013-06-05 03:02:00,
2013-06-04 23:07:00,54.9,8.1,17.72,West,261,0.0,0.0,15,0.00,,---,0.00,VWS V13.01,2013-06-05 03:07:00,
2013-06-04 23:12:00,55.2,8.4,17.72,West,261,0.0,0.0,15,0.00,,---,0.00,VWS V13.01,2013-06-05 03:12:00,
2013-06-04 23:17:00,55.6,8.7,17.72,West,261,0.0,0.0,15,0.00,,---,0.00,VWS V13.01,2013-06-05 03:17:00,
2013-06-04 23:22:00,55.6,8.7,17.72,West,261,0.0,0.0,15,0.00,,---,0.00,VWS V13.01,2013-06-05 03:22:00,
2013-06-04 23:27:00,55.8,3.9,17.72,West,261,0.0,0.0,12,0.00,,---,0.00,VWS V13.01,2013-06-05 03:27:00,
2013-06-04 23:32:00,56.3,4.4,17.72,West,261,0.0,0.0,12,0.00,,---,0.00,VWS V13.01,2013-06-05 03:32:00,
2013-06-04 23:37:00,56.7,4.6,17.72,West,261,0.0,0.0,12,0.00,,---,0.00,VWS V13.01,2013-06-05 03:37:00,
2013-06-04 23:42:00,56.8,4.8,17.72,West,261,0.0,0.0,12,0.00,,---,0.00,VWS V13.01,2013-06-05 03:42:00,
2013-06-04 23:47:00,57.0,4.9,17.72,West,261,0.0,0.0,12,0.00,,---,0.00,VWS V13.01,2013-06-05 03:47:00,
2013-06-04 23:52:00,57.0,4.9,17.72,West,261,0.0,0.0,12,0.00,,---,0.00,VWS V13.01,2013-06-05 03:52:00,
2013-06-04 23:57:00,57.2,5.1,17.72,West,263,0.0,0.0,12,0.00,,---,0.00,VWS V13.01,2013-06-05 03:57:00,